Content
SEND FEEDBACK

Daily
Averages
Monthly
Summary
United States of America

SAN FRANCISCO, CALIFORNIA


Home > North America > United States > California
Elevation: 128 feet     Latitude: 37 46N     Longitude: 122 26W

WEATHER
 
SELECT A DAY
Number of Records: 184,858;   Date Range: 1/1/95 - 7/29/14
 
SHARE

PRINT THIS DATA

[ ← Previous Day ]
WEATHER ALMANAC - JANUARY 24, 2013
[ Next Day → ]
[ °C ]   °F
Weather ElementAverageHighLow
Temperature52.6 °F55.9 °F (4:56 pm)51.1 °F (1:56 am)
Dewpoint48.5 °F50 °F (4:56 pm)46.4 °F (2:47 am)
Humidity86 %89 % (1:56 am)80 % (4:56 pm)
Barometer30.14 in30.19 in (10:56 pm)30.08 in (1:56 am)
Wind Speed3.1 mph5.8 mph (9:56 am)
Weather ElementAverage
Visibility6.5 mi
Wind DirectionENE (60 °)

Weather ElementTotal
Precipitation---
Heating Degree Days11.5 (Base 65)
Growing Degree Days3.5 (Base 50)
Averaged from 26 records on January 24, 2013
WEATHER CONDITIONS BREAKOUT
WIND DIRECTION BREAKOUT
WEATHER BY HOUR - JANUARY 24, 2013
[ °C ]   °F
Local TimeTemperatureDewpointHumidityBarometerVisibilityWind DirectionWind SpeedGust SpeedPrecipitationEventsConditions
1:56 AM51.1 °F48.0 °F89 %30.08 in5.0 miCalmOvercast
2:47 AM51.8 °F46.4 °F82 %30.09 in5.0 miCalmOvercast
2:56 AM51.1 °F46.9 °F86 %30.09 in6.0 miSW (230°)3.5 mphOvercast
3:56 AM51.1 °F46.9 °F86 %30.09 in6.0 miCalmOvercast
4:56 AM51.1 °F48.0 °F89 %30.09 in6.0 miCalmOvercast
5:56 AM52.0 °F48.0 °F86 %30.09 in6.0 miCalmOvercast
6:56 AM51.1 °F48.0 °F89 %30.10 in6.0 miNNE (20°)3.5 mphOvercast
7:56 AM51.1 °F48.0 °F89 %30.12 in3.0 miNorth (10°)4.6 mphOvercast
8:56 AM52.0 °F48.0 °F86 %30.13 in3.0 miSE (140°)3.5 mphOvercast
9:46 AM51.8 °F48.2 °F88 %30.15 in4.0 miNNE (30°)4.6 mphOvercast
9:47 AM51.8 °F48.2 °F88 %30.15 in4.0 miNNE (30°)4.6 mphOvercast
9:56 AM52.0 °F48.0 °F86 %30.16 in4.0 miNNE (20°)5.8 mphOvercast
10:56 AM52.0 °F48.9 °F89 %30.17 in4.0 miNorth (10°)4.6 mphOvercast
11:56 AM52.0 °F48.9 °F89 %30.16 in4.0 miCalmOvercast
12:56 PM53.1 °F48.9 °F86 %30.13 in5.0 miEast (100°)3.5 mphOvercast
1:56 PM53.1 °F48.9 °F86 %30.12 in6.0 miENE (70°)3.5 mphOvercast
2:56 PM53.1 °F48.9 °F86 %30.13 in8.0 miEast (80°)4.6 mphOvercast
3:56 PM53.1 °F48.9 °F86 %30.13 in8.0 miEast (90°)4.6 mphOvercast
4:56 PM55.9 °F50.0 °F80 %30.14 in9.0 miSE (130°)5.8 mphOvercast
5:56 PM55.0 °F50.0 °F83 %30.15 in10.0 miSE (140°)5.8 mphOvercast
6:56 PM55.0 °F50.0 °F83 %30.17 in10.0 miSE (140°)5.8 mphOvercast
7:56 PM55.0 °F48.9 °F80 %30.17 in10.0 miSSE (150°)4.6 mphOvercast
8:56 PM55.0 °F48.9 °F80 %30.18 in10.0 miSSE (150°)3.5 mphOvercast
9:56 PM53.1 °F48.9 °F86 %30.18 in10.0 miCalmOvercast
10:56 PM52.0 °F48.9 °F89 %30.19 in9.0 miCalmMostly Cloudy
11:56 PM52.0 °F48.9 °F89 %30.19 in9.0 miNNE (20°)4.6 mphMostly Cloudy
Hourly data recorded from KSFO, located miles away from San Francisco, California







STORIES FROM OUR PARTNERS